Tracking 19562 objects as of 21-Mar-2019
HD Live streaming from Space Station
objects crossing your sky now

AUREOLE 2

Track AUREOLE 2 now!
10-day predictions
AUREOLE 2 is classified as:


NORAD ID: 7003
Int'l Code: 1973-107A
Perigee: 374.4 km
Apogee: 915.0 km
Inclination: 73.9 °
Period: 97.5 minutes
Semi major axis: 7015 km
RCS: 2.1042 m2 (large)
Launch date: December 26, 1973
Source: France (FR)
Launch site: PLESETSK MISSILE AND SPACE COMPLEX (PKMTR)
aabbcc
Your satellite tracking list
Your tracking list is empty




NASA's NSSDC Master Catalog

Two Line Element Set (TLE):
1  7003U 73107A   19079.91124581 +.00001011 +00000-0 +42019-4 0  9998
2  7003 073.9263 197.5898 0385282 038.7940 324.0227 14.77395665308079
Source of the keplerian elements: AFSPC